Hutchinson, MN

6:42 PM CDT on May 23, 2017 (GMT -0500)
Hutchinson Municipal-Butler

Weather History for KHCD - November, 2014

Change the Weather History Date:

Friday, November 21, 2014

  Actual Average Record
Temperature  
Mean Temperature 15 °F -  
Max Temperature 31 °F 36 °F 64 °F (1990)
Min Temperature -1 °F 19 °F -3 °F (1964)
Degree Days  
Heating Degree Days 50    
Moisture  
Dew Point 15 °F    
Average Humidity 82    
Maximum Humidity 90    
Minimum Humidity 70    
Precipitation  
Precipitation 0.00 in - - ()
Sea Level Pressure  
Sea Level Pressure 30.04 in    
Wind  
Wind Speed 7 mph (SSE)    
Max Wind Speed 18 mph    
Max Gust Speed 25 mph    
Visibility 10 miles    
Events      
Averages and records for this station are not official NWS values.
T = Trace of Precipitation, MM = Missing Value Source: NWS Daily Summary

Daily Weather History Graph

Daily Weather History Graph

Search for Another Location

Airport or City:

Trip Planner

Search our weather history database for the weather conditions in past years. The results will help you decide how hot, cold, wet, or windy it might be!

Date:

Astronomy

Nov. 21, 2014 Rise Set
Actual Time 7:22 AM CST 4:43 PM CST
Civil Twilight 6:50 AM CST 5:15 PM CST
Nautical Twilight 6:14 AM CST 5:51 PM CST
Astronomical Twilight 5:39 AM CST 6:26 PM CST
Moon 6:15 AM CST (11/21) 4:31 PM CST (11/21)
Length of Visible Light 10h 25m
Length of Day
9h 20m
Waning Crescent, 1% of the Moon is Illuminated
Nov 21
Waning Crescent
Nov 22
New
Nov 29
First Quarter
Dec 6
Full
Dec 14
Last Quarter

Hourly Weather History & Observations

Time (CST) Temp. Windchill Dew Point Humidity Pressure Visibility Wind Dir Wind Speed Gust Speed Precip Events Conditions
12:13 AM -0.2 °F - -3.1 °F 88% 30.24 in 10.0 mi Calm Calm - N/A   Clear
12:33 AM -0.4 °F - -3.6 °F 86% 30.24 in 10.0 mi Calm Calm - N/A   Clear
12:53 AM -1.8 °F -9.9 °F -5.3 °F 85% 30.24 in 10.0 mi East 3.5 mph - N/A   Clear
1:12 AM 0.1 °F -7.7 °F -2.9 °F 87% 30.23 in 10.0 mi ESE 3.5 mph - N/A   Clear
1:32 AM -0.4 °F -10.4 °F -3.8 °F 85% 30.23 in 10.0 mi SE 4.6 mph - N/A   Clear
1:53 AM 0.7 °F -7.1 °F -2.6 °F 86% 30.22 in 10.0 mi SE 3.5 mph - N/A   Clear
2:12 AM -0.0 °F - -3.3 °F 86% 30.22 in 10.0 mi Calm Calm - N/A   Clear
2:32 AM 2.3 °F -5.2 °F -1.1 °F 86% 30.22 in 10.0 mi SE 3.5 mph - N/A   Clear
2:52 AM 3.2 °F -4.2 °F 0.3 °F 88% 30.21 in 10.0 mi ESE 3.5 mph - N/A   Clear
3:13 AM 2.7 °F - -0.6 °F 86% 30.21 in 10.0 mi Calm Calm - N/A   Clear
3:32 AM 3.2 °F -6.2 °F -0.0 °F 86% 30.20 in 10.0 mi ESE 4.6 mph - N/A   Clear
3:52 AM 3.2 °F -6.2 °F -0.0 °F 86% 30.19 in 10.0 mi ESE 4.6 mph - N/A   Clear
4:13 AM 3.7 °F -7.1 °F 0.5 °F 86% 30.19 in 10.0 mi SE 5.8 mph - N/A   Clear
4:33 AM 4.8 °F -2.3 °F 2.1 °F 89% 30.18 in 10.0 mi SE 3.5 mph - N/A   Clear
4:52 AM 5.7 °F -1.3 °F 3.0 °F 89% 30.17 in 10.0 mi SE 3.5 mph - N/A   Clear
5:12 AM 7.2 °F -1.5 °F 4.3 °F 88% 30.17 in 10.0 mi SSE 4.6 mph - N/A   Clear
5:32 AM 7.9 °F 1.2 °F 5.2 °F 89% 30.16 in 10.0 mi SSE 3.5 mph - N/A   Clear
5:52 AM 8.4 °F -0.1 °F 5.7 °F 89% 30.16 in 10.0 mi SSE 4.6 mph - N/A   Clear
6:13 AM 8.6 °F 2.0 °F 5.9 °F 89% 30.16 in 10.0 mi SSE 3.5 mph - N/A   Clear
6:33 AM 10.6 °F 1.0 °F 7.9 °F 89% 30.15 in 10.0 mi SSE 5.8 mph - N/A   Clear
6:53 AM 12.2 °F 0.7 °F 9.3 °F 88% 30.15 in 10.0 mi SSE 8.1 mph - N/A   Clear
7:12 AM 12.7 °F -0.4 °F 9.7 °F 88% 30.14 in 10.0 mi South 10.4 mph - N/A   Scattered Clouds
7:33 AM 13.5 °F 1.3 °F 10.0 °F 86% 30.14 in 10.0 mi SSE 9.2 mph - N/A   Mostly Cloudy
7:52 AM 14.0 °F 2.0 °F 10.4 °F 86% 30.14 in 10.0 mi SSE 9.2 mph - N/A   Scattered Clouds
8:13 AM 14.7 °F 1.4 °F 10.9 °F 85% 30.13 in 10.0 mi SSE 11.5 mph - N/A   Scattered Clouds
8:33 AM 15.8 °F 2.7 °F 11.3 °F 82% 30.11 in 10.0 mi SSE 11.5 mph 19.6 mph N/A   Clear
8:53 AM 16.7 °F 6.2 °F 11.8 °F 81% 30.11 in 10.0 mi SSE 8.1 mph 17.3 mph N/A   Mostly Cloudy
9:13 AM 18.1 °F 5.0 °F 12.2 °F 78% 30.10 in 10.0 mi SSE 12.7 mph 19.6 mph N/A   Overcast
9:33 AM 18.3 °F 5.9 °F 12.4 °F 78% 30.10 in 10.0 mi SSE 11.5 mph 19.6 mph N/A   Overcast
9:52 AM 20.1 °F 6.9 °F 13.5 °F 75% 30.09 in 10.0 mi SSE 13.8 mph 18.4 mph N/A   Mostly Cloudy
10:12 AM 21.2 °F 10.1 °F 14.0 °F 74% 30.08 in 10.0 mi SSE 10.4 mph 18.4 mph N/A   Scattered Clouds
10:33 AM 22.8 °F 10.9 °F 15.1 °F 72% 30.08 in 10.0 mi South 12.7 mph 20.7 mph N/A   Clear
10:53 AM 24.4 °F 11.9 °F 16.3 °F 71% 30.08 in 10.0 mi South 15.0 mph 24.2 mph N/A   Clear
11:13 AM 24.8 °F 11.1 °F 16.3 °F 70% 30.07 in 10.0 mi South 18.4 mph 25.3 mph N/A   Clear
11:32 AM 25.7 °F 13.5 °F 17.2 °F 70% 30.05 in 10.0 mi SSE 15.0 mph 23.0 mph N/A   Clear
11:53 AM 26.4 °F 14.0 °F 18.1 °F 71% 30.05 in 10.0 mi South 16.1 mph 24.2 mph N/A   Clear
12:13 PM 26.6 °F 16.8 °F 18.7 °F 72% 30.04 in 10.0 mi SSE 10.4 mph 23.0 mph N/A   Clear
12:32 PM 26.6 °F 15.2 °F 18.9 °F 73% 30.03 in 10.0 mi South 13.8 mph 24.2 mph N/A   Clear
12:53 PM 26.6 °F 14.3 °F 19.2 °F 74% 30.02 in 10.0 mi South 16.1 mph 20.7 mph N/A   Clear
1:12 PM 26.6 °F 15.2 °F 19.9 °F 76% 30.01 in 10.0 mi South 13.8 mph 19.6 mph N/A   Clear
1:33 PM 28.0 °F 16.5 °F 21.0 °F 75% 30.00 in 10.0 mi SSE 15.0 mph 21.9 mph N/A   Clear
1:52 PM 28.2 °F 16.8 °F 21.6 °F 76% 29.98 in 10.0 mi South 15.0 mph 20.7 mph N/A   Clear
2:13 PM 28.4 °F 17.5 °F 22.1 °F 77% 29.97 in 10.0 mi SSE 13.8 mph 20.7 mph N/A   Clear
2:32 PM 29.1 °F 19.4 °F 22.6 °F 77% 29.97 in 10.0 mi SSE 11.5 mph 18.4 mph N/A   Clear
2:52 PM 29.5 °F 19.3 °F 23.0 °F 77% 29.97 in 10.0 mi SSE 12.7 mph 17.3 mph N/A   Clear
3:12 PM 30.2 °F 19.8 °F 23.7 °F 77% 29.96 in 10.0 mi South 13.8 mph 19.6 mph N/A   Clear
3:33 PM 30.6 °F 20.7 °F 23.9 °F 76% 29.95 in 10.0 mi SSE 12.7 mph 19.6 mph N/A   Clear
3:52 PM 30.6 °F 20.2 °F 23.9 °F 76% 29.95 in 10.0 mi South 13.8 mph 19.6 mph N/A   Clear
4:12 PM 30.9 °F 21.2 °F 24.6 °F 77% 29.94 in 10.0 mi South 12.7 mph 18.4 mph N/A   Clear
4:33 PM 31.1 °F 21.4 °F 24.8 °F 77% 29.94 in 10.0 mi South 12.7 mph 19.6 mph N/A   Clear
4:52 PM 30.7 °F 22.0 °F 24.8 °F 79% 29.94 in 10.0 mi South 10.4 mph - N/A   Clear
5:12 PM 30.0 °F 20.5 °F 24.6 °F 80% 29.94 in 10.0 mi South 11.5 mph 16.1 mph N/A   Clear
5:33 PM 29.8 °F 20.3 °F 24.8 °F 81% 29.94 in 10.0 mi South 11.5 mph 17.3 mph N/A   Clear
5:52 PM 29.7 °F 22.0 °F 24.8 °F 82% 29.94 in 10.0 mi SSE 8.1 mph - N/A   Clear
6:13 PM 29.1 °F 20.6 °F 24.4 °F 83% 29.94 in 10.0 mi SSE 9.2 mph - N/A   Clear
6:32 PM 29.1 °F 20.0 °F 24.4 °F 83% 29.92 in 10.0 mi South 10.4 mph - N/A   Clear
6:52 PM 28.8 °F 19.5 °F 23.9 °F 82% 29.92 in 10.0 mi South 10.4 mph 16.1 mph N/A   Clear
7:13 PM 28.4 °F 20.4 °F 23.9 °F 83% 29.91 in 10.0 mi South 8.1 mph - N/A   Clear
7:33 PM 28.2 °F 18.9 °F 23.9 °F 84% 29.91 in 10.0 mi South 10.4 mph - N/A   Clear
7:53 PM 28.2 °F 19.5 °F 23.9 °F 84% 29.90 in 10.0 mi South 9.2 mph - N/A   Clear
8:12 PM 27.1 °F 21.8 °F 23.5 °F 86% 29.89 in 10.0 mi SSE 4.6 mph - N/A   Clear
8:33 PM 27.3 °F 18.4 °F 23.7 °F 86% 29.88 in 10.0 mi South 9.2 mph - N/A   Clear
8:52 PM 27.5 °F 18.6 °F 23.9 °F 86% 29.87 in 10.0 mi South 9.2 mph - N/A   Clear
9:13 PM 28.0 °F 18.6 °F 24.3 °F 86% 29.87 in 10.0 mi SSE 10.4 mph - N/A   Clear
9:32 PM 28.2 °F 18.9 °F 24.6 °F 86% 29.87 in 10.0 mi South 10.4 mph - N/A   Clear
9:52 PM 28.4 °F 19.7 °F 25.2 °F 88% 29.86 in 10.0 mi South 9.2 mph - N/A   Clear
10:12 PM 28.8 °F 19.5 °F 25.5 °F 88% 29.85 in 10.0 mi South 10.4 mph - N/A   Clear
10:32 PM 29.3 °F 21.5 °F 26.1 °F 88% 29.86 in 10.0 mi South 8.1 mph 16.1 mph N/A   Clear
10:53 PM 29.3 °F 22.3 °F 26.4 °F 89% 29.85 in 10.0 mi South 6.9 mph - N/A   Clear
11:12 PM 29.3 °F 21.5 °F 26.6 °F 90% 29.85 in 10.0 mi South 8.1 mph - N/A   Clear
11:32 PM 29.8 °F 21.5 °F 27.1 °F 90% 29.84 in 10.0 mi South 9.2 mph - N/A   Clear
11:53 PM 29.8 °F 20.9 °F 27.1 °F 90% 29.83 in 10.0 mi South 10.4 mph 16.1 mph N/A   Clear